カタログに戻る

THOR ABLESTAR DEB

運用中LEO
NORAD 124·DEBRIS·🇺🇸 United States

打ち上げ Jun 29, 1961 から Cape Canaveral Space Force Station

Loading…

次のパス (今後24時間)

TLE

最新Source: Space-Track

元期: Sep 14, 2026, 13:23 UTC

1 00124U 61015J   26257.55823625  .00000428  00000-0  17307-3 0  9993
2 00124  66.5465   6.0138 0061730  67.6590 293.1037 14.36129674371761

AllMySatでTHOR ABLESTAR DEBをリアルタイム追跡

Download on the App Store